﻿測定場所 (Monitoring sites),日付 (Measurement date),時間 (Measurement time),線量率 最大値 (max) μGy/h,線量率 最小値 (min) μGy/h,線量率 平均値 (average) μGy/h,
新宿 (Shinjuku),2011-05-22,23:00～23:59,0.0671,0.0602,0.0638,
新宿 (Shinjuku),2011-05-22,22:00～22:59,0.0668,0.0618,0.0643,
新宿 (Shinjuku),2011-05-22,21:00～21:59,0.0660,0.0600,0.0624,
新宿 (Shinjuku),2011-05-22,20:00～20:59,0.0646,0.0584,0.0618,
新宿 (Shinjuku),2011-05-22,19:00～19:59,0.0652,0.0596,0.0624,
新宿 (Shinjuku),2011-05-22,18:00～18:59,0.0673,0.0607,0.0640,
新宿 (Shinjuku),2011-05-22,17:00～17:59,0.0715,0.0638,0.0681,
新宿 (Shinjuku),2011-05-22,16:00～16:59,0.0742,0.0664,0.0704,
新宿 (Shinjuku),2011-05-22,15:00～15:59,0.0702,0.0602,0.0643,
新宿 (Shinjuku),2011-05-22,14:00～14:59,0.0649,0.0595,0.0622,
新宿 (Shinjuku),2011-05-22,13:00～13:59,0.0646,0.0596,0.0620,
新宿 (Shinjuku),2011-05-22,12:00～12:59,0.0651,0.0596,0.0623,
新宿 (Shinjuku),2011-05-22,11:00～11:59,0.0663,0.0600,0.0628,
新宿 (Shinjuku),2011-05-22,10:00～10:59,0.0659,0.0601,0.0630,
新宿 (Shinjuku),2011-05-22,09:00～09:59,0.0650,0.0594,0.0625,
新宿 (Shinjuku),2011-05-22,08:00～08:59,0.0666,0.0596,0.0627,
新宿 (Shinjuku),2011-05-22,07:00～07:59,0.0654,0.0596,0.0627,
新宿 (Shinjuku),2011-05-22,06:00～06:59,0.0648,0.0601,0.0625,
新宿 (Shinjuku),2011-05-22,05:00～05:59,0.0644,0.0583,0.0621,
新宿 (Shinjuku),2011-05-22,04:00～04:59,0.0655,0.0591,0.0618,
新宿 (Shinjuku),2011-05-22,03:00～03:59,0.0645,0.0593,0.0622,
新宿 (Shinjuku),2011-05-22,02:00～02:59,0.0648,0.0584,0.0621,
新宿 (Shinjuku),2011-05-22,01:00～01:59,0.0643,0.0596,0.0623,
新宿 (Shinjuku),2011-05-22,00:00～00:59,0.0659,0.0600,0.0621,
新宿 (Shinjuku),2011-05-21,23:00～23:59,0.0645,0.0596,0.0620,
新宿 (Shinjuku),2011-05-21,22:00～22:59,0.0652,0.0589,0.0621,
新宿 (Shinjuku),2011-05-21,21:00～21:59,0.0652,0.0596,0.0622,
新宿 (Shinjuku),2011-05-21,20:00～20:59,0.0644,0.0590,0.0621,
新宿 (Shinjuku),2011-05-21,19:00～19:59,0.0656,0.0601,0.0621,
新宿 (Shinjuku),2011-05-21,18:00～18:59,0.0658,0.0594,0.0623,
新宿 (Shinjuku),2011-05-21,17:00～17:59,0.0662,0.0590,0.0624,
新宿 (Shinjuku),2011-05-21,16:00～16:59,0.0655,0.0600,0.0628,
新宿 (Shinjuku),2011-05-21,15:00～15:59,0.0662,0.0606,0.0629,
新宿 (Shinjuku),2011-05-21,14:00～14:59,0.0659,0.0603,0.0628,
新宿 (Shinjuku),2011-05-21,13:00～13:59,0.0649,0.0606,0.0627,
新宿 (Shinjuku),2011-05-21,12:00～12:59,0.0662,0.0606,0.0629,
新宿 (Shinjuku),2011-05-21,11:00～11:59,0.0656,0.0593,0.0629,
新宿 (Shinjuku),2011-05-21,10:00～10:59,0.0646,0.0597,0.0627,
新宿 (Shinjuku),2011-05-21,09:00～09:59,0.0659,0.0607,0.0632,
新宿 (Shinjuku),2011-05-21,08:00～08:59,0.0669,0.0599,0.0629,
新宿 (Shinjuku),2011-05-21,07:00～07:59,0.0673,0.0607,0.0627,
新宿 (Shinjuku),2011-05-21,06:00～06:59,0.0665,0.0600,0.0624,
新宿 (Shinjuku),2011-05-21,05:00～05:59,0.0655,0.0589,0.0624,
新宿 (Shinjuku),2011-05-21,04:00～04:59,0.0648,0.0593,0.0621,
新宿 (Shinjuku),2011-05-21,03:00～03:59,0.0647,0.0594,0.0619,
新宿 (Shinjuku),2011-05-21,02:00～02:59,0.0642,0.0592,0.0619,
新宿 (Shinjuku),2011-05-21,01:00～01:59,0.0649,0.0600,0.0622,
新宿 (Shinjuku),2011-05-21,00:00～00:59,0.0656,0.0598,0.0623,
新宿 (Shinjuku),2011-05-20,23:00～23:59,0.0644,0.0586,0.0618,
新宿 (Shinjuku),2011-05-20,22:00～22:59,0.0647,0.0594,0.0620,
新宿 (Shinjuku),2011-05-20,21:00～21:59,0.0656,0.0596,0.0622,
新宿 (Shinjuku),2011-05-20,20:00～20:59,0.0649,0.0586,0.0620,
新宿 (Shinjuku),2011-05-20,19:00～19:59,0.0658,0.0586,0.0621,
新宿 (Shinjuku),2011-05-20,18:00～18:59,0.0654,0.0597,0.0621,
新宿 (Shinjuku),2011-05-20,17:00～17:59,0.0654,0.0594,0.0621,
新宿 (Shinjuku),2011-05-20,16:00～16:59,0.0657,0.0598,0.0625,
新宿 (Shinjuku),2011-05-20,15:00～15:59,0.0645,0.0600,0.0626,
新宿 (Shinjuku),2011-05-20,14:00～14:59,0.0652,0.0603,0.0627,
新宿 (Shinjuku),2011-05-20,13:00～13:59,0.0648,0.0584,0.0628,
新宿 (Shinjuku),2011-05-20,12:00～12:59,0.0656,0.0586,0.0627,
新宿 (Shinjuku),2011-05-20,11:00～11:59,0.0652,0.0577,0.0623,
新宿 (Shinjuku),2011-05-20,10:00～10:59,0.0668,0.0609,0.0630,
新宿 (Shinjuku),2011-05-20,09:00～09:59,0.0668,0.0602,0.0633,
新宿 (Shinjuku),2011-05-20,08:00～08:59,0.0656,0.0596,0.0630,
新宿 (Shinjuku),2011-05-20,07:00～07:59,0.0651,0.0600,0.0629,
新宿 (Shinjuku),2011-05-20,06:00～06:59,0.0659,0.0600,0.0626,
新宿 (Shinjuku),2011-05-20,05:00～05:59,0.0649,0.0600,0.0626,
新宿 (Shinjuku),2011-05-20,04:00～04:59,0.0643,0.0593,0.0622,
新宿 (Shinjuku),2011-05-20,03:00～03:59,0.0656,0.0600,0.0623,
新宿 (Shinjuku),2011-05-20,02:00～02:59,0.0655,0.0587,0.0621,
新宿 (Shinjuku),2011-05-20,01:00～01:59,0.0647,0.0588,0.0622,
新宿 (Shinjuku),2011-05-20,00:00～00:59,0.0643,0.0598,0.0622,
新宿 (Shinjuku),2011-05-19,23:00～23:59,0.0656,0.0604,0.0624,
新宿 (Shinjuku),2011-05-19,22:00～22:59,0.0648,0.0598,0.0624,
新宿 (Shinjuku),2011-05-19,21:00～21:59,0.0652,0.0602,0.0624,
新宿 (Shinjuku),2011-05-19,20:00～20:59,0.0648,0.0596,0.0623,
新宿 (Shinjuku),2011-05-19,19:00～19:59,0.0645,0.0587,0.0621,
新宿 (Shinjuku),2011-05-19,18:00～18:59,0.0647,0.0594,0.0618,
新宿 (Shinjuku),2011-05-19,17:00～17:59,0.0650,0.0599,0.0624,
新宿 (Shinjuku),2011-05-19,16:00～16:59,0.0655,0.0601,0.0629,
新宿 (Shinjuku),2011-05-19,15:00～15:59,0.0653,0.0603,0.0626,
新宿 (Shinjuku),2011-05-19,14:00～14:59,0.0658,0.0607,0.0632,
新宿 (Shinjuku),2011-05-19,13:00～13:59,0.0659,0.0603,0.0630,
新宿 (Shinjuku),2011-05-19,12:00～12:59,0.0657,0.0608,0.0630,
新宿 (Shinjuku),2011-05-19,11:00～11:59,0.0657,0.0603,0.0631,
新宿 (Shinjuku),2011-05-19,10:00～10:59,0.0659,0.0607,0.0630,
新宿 (Shinjuku),2011-05-19,09:00～09:59,0.0663,0.0606,0.0633,
新宿 (Shinjuku),2011-05-19,08:00～08:59,0.0660,0.0604,0.0635,
新宿 (Shinjuku),2011-05-19,07:00～07:59,0.0659,0.0603,0.0638,
新宿 (Shinjuku),2011-05-19,06:00～06:59,0.0663,0.0613,0.0631,
新宿 (Shinjuku),2011-05-19,05:00～05:59,0.0656,0.0608,0.0629,
新宿 (Shinjuku),2011-05-19,04:00～04:59,0.0653,0.0600,0.0631,
新宿 (Shinjuku),2011-05-19,03:00～03:59,0.0651,0.0596,0.0629,
新宿 (Shinjuku),2011-05-19,02:00～02:59,0.0662,0.0593,0.0627,
新宿 (Shinjuku),2011-05-19,01:00～01:59,0.0655,0.0601,0.0625,
新宿 (Shinjuku),2011-05-19,00:00～00:59,0.0656,0.0597,0.0624,
新宿 (Shinjuku),2011-05-18,23:00～23:59,0.0654,0.0600,0.0624,
新宿 (Shinjuku),2011-05-18,22:00～22:59,0.0648,0.0579,0.0623,
新宿 (Shinjuku),2011-05-18,21:00～21:59,0.0646,0.0600,0.0622,
新宿 (Shinjuku),2011-05-18,20:00～20:59,0.0649,0.0588,0.0620,
新宿 (Shinjuku),2011-05-18,19:00～19:59,0.0648,0.0600,0.0622,
新宿 (Shinjuku),2011-05-18,18:00～18:59,0.0645,0.0596,0.0622,
新宿 (Shinjuku),2011-05-18,17:00～17:59,0.0663,0.0599,0.0623,
新宿 (Shinjuku),2011-05-18,16:00～16:59,0.0662,0.0598,0.0624,
新宿 (Shinjuku),2011-05-18,15:00～15:59,0.0652,0.0604,0.0625,
新宿 (Shinjuku),2011-05-18,14:00～14:59,0.0648,0.0598,0.0626,
新宿 (Shinjuku),2011-05-18,13:00～13:59,0.0652,0.0597,0.0627,
新宿 (Shinjuku),2011-05-18,12:00～12:59,0.0661,0.0603,0.0628,
新宿 (Shinjuku),2011-05-18,11:00～11:59,0.0656,0.0606,0.0630,
新宿 (Shinjuku),2011-05-18,10:00～10:59,0.0656,0.0597,0.0627,
新宿 (Shinjuku),2011-05-18,09:00～09:59,0.0655,0.0607,0.0629,
新宿 (Shinjuku),2011-05-18,08:00～08:59,0.0658,0.0609,0.0632,
新宿 (Shinjuku),2011-05-18,07:00～07:59,0.0669,0.0610,0.0635,
新宿 (Shinjuku),2011-05-18,06:00～06:59,0.0656,0.0603,0.0631,
新宿 (Shinjuku),2011-05-18,05:00～05:59,0.0660,0.0604,0.0633,
新宿 (Shinjuku),2011-05-18,04:00～04:59,0.0653,0.0597,0.0629,
新宿 (Shinjuku),2011-05-18,03:00～03:59,0.0659,0.0602,0.0629,
新宿 (Shinjuku),2011-05-18,02:00～02:59,0.0662,0.0600,0.0626,
新宿 (Shinjuku),2011-05-18,01:00～01:59,0.0657,0.0607,0.0627,
新宿 (Shinjuku),2011-05-18,00:00～00:59,0.0655,0.0586,0.0625,
新宿 (Shinjuku),2011-05-17,23:00～23:59,0.0653,0.0602,0.0624,
新宿 (Shinjuku),2011-05-17,22:00～22:59,0.0656,0.0598,0.0625,
新宿 (Shinjuku),2011-05-17,21:00～21:59,0.0647,0.0601,0.0623,
新宿 (Shinjuku),2011-05-17,20:00～20:59,0.0650,0.0599,0.0625,
新宿 (Shinjuku),2011-05-17,19:00～19:59,0.0662,0.0609,0.0634,
新宿 (Shinjuku),2011-05-17,18:00～18:59,0.0676,0.0623,0.0650,
新宿 (Shinjuku),2011-05-17,17:00～17:59,0.0678,0.0617,0.0650,
新宿 (Shinjuku),2011-05-17,16:00～16:59,0.0722,0.0644,0.0683,
新宿 (Shinjuku),2011-05-17,15:00～15:59,0.0690,0.0607,0.0655,
新宿 (Shinjuku),2011-05-17,14:00～14:59,0.0677,0.0605,0.0648,
新宿 (Shinjuku),2011-05-17,13:00～13:59,0.0659,0.0610,0.0632,
新宿 (Shinjuku),2011-05-17,12:00～12:59,0.0666,0.0616,0.0636,
新宿 (Shinjuku),2011-05-17,11:00～11:59,0.0666,0.0604,0.0640,
新宿 (Shinjuku),2011-05-17,10:00～10:59,0.0685,0.0614,0.0641,
新宿 (Shinjuku),2011-05-17,09:00～09:59,0.0661,0.0609,0.0640,
新宿 (Shinjuku),2011-05-17,08:00～08:59,0.0667,0.0603,0.0633,
新宿 (Shinjuku),2011-05-17,07:00～07:59,0.0666,0.0603,0.0634,
新宿 (Shinjuku),2011-05-17,06:00～06:59,0.0659,0.0618,0.0634,
新宿 (Shinjuku),2011-05-17,05:00～05:59,0.0658,0.0610,0.0631,
新宿 (Shinjuku),2011-05-17,04:00～04:59,0.0655,0.0601,0.0629,
新宿 (Shinjuku),2011-05-17,03:00～03:59,0.0652,0.0601,0.0629,
新宿 (Shinjuku),2011-05-17,02:00～02:59,0.0655,0.0603,0.0628,
新宿 (Shinjuku),2011-05-17,01:00～01:59,0.0652,0.0603,0.0629,
新宿 (Shinjuku),2011-05-17,00:00～00:59,0.0672,0.0606,0.0628,
新宿 (Shinjuku),2011-05-16,23:00～23:59,0.0649,0.0596,0.0627,
新宿 (Shinjuku),2011-05-16,22:00～22:59,0.0651,0.0607,0.0628,
新宿 (Shinjuku),2011-05-16,21:00～21:59,0.0656,0.0606,0.0630,
新宿 (Shinjuku),2011-05-16,20:00～20:59,0.0646,0.0602,0.0626,
新宿 (Shinjuku),2011-05-16,19:00～19:59,0.0653,0.0605,0.0631,
新宿 (Shinjuku),2011-05-16,18:00～18:59,0.0659,0.0595,0.0627,
新宿 (Shinjuku),2011-05-16,17:00～17:59,0.0655,0.0603,0.0630,
新宿 (Shinjuku),2011-05-16,16:00～16:59,0.0657,0.0598,0.0627,
新宿 (Shinjuku),2011-05-16,15:00～15:59,0.0655,0.0596,0.0628,
新宿 (Shinjuku),2011-05-16,14:00～14:59,0.0649,0.0600,0.0629,
新宿 (Shinjuku),2011-05-16,13:00～13:59,0.0662,0.0600,0.0630,
新宿 (Shinjuku),2011-05-16,12:00～12:59,0.0655,0.0606,0.0633,
新宿 (Shinjuku),2011-05-16,11:00～11:59,0.0669,0.0607,0.0630,
新宿 (Shinjuku),2011-05-16,10:00～10:59,0.0659,0.0610,0.0632,
新宿 (Shinjuku),2011-05-16,09:00～09:59,0.0671,0.0605,0.0634,
新宿 (Shinjuku),2011-05-16,08:00～08:59,0.0662,0.0611,0.0634,
新宿 (Shinjuku),2011-05-16,07:00～07:59,0.0666,0.0608,0.0634,
新宿 (Shinjuku),2011-05-16,06:00～06:59,0.0667,0.0607,0.0632,
新宿 (Shinjuku),2011-05-16,05:00～05:59,0.0659,0.0601,0.0630,
新宿 (Shinjuku),2011-05-16,04:00～04:59,0.0659,0.0612,0.0631,
新宿 (Shinjuku),2011-05-16,03:00～03:59,0.0659,0.0597,0.0629,
新宿 (Shinjuku),2011-05-16,02:00～02:59,0.0655,0.0596,0.0630,
新宿 (Shinjuku),2011-05-16,01:00～01:59,0.0655,0.0602,0.0628,
新宿 (Shinjuku),2011-05-16,00:00～00:59,0.0654,0.0603,0.0629,
